Weather History for Sete, France

Change the Weather History Date:

Wednesday, June 26, 2013

  Actual Average (LFMT) Record (LFMT)
Temperature  
Mean Temperature 68 °F -  
Max Temperature 80 °F 81 °F 93 °F (2003)
Min Temperature 57 °F 63 °F 58 °F (2013)
Cooling Degree Days 4    
Growing Degree Days 18 (Base 50)    
Moisture  
Dew Point 44 °F    
Average Humidity 40    
Maximum Humidity 59    
Minimum Humidity 26    
Precipitation  
Precipitation 0.00 in - - ()
Sea Level Pressure  
Sea Level Pressure 30.21 in    
Wind  
Wind Speed 11 mph ()    
Max Wind Speed 18 mph    
Max Gust Speed 26 mph    
Visibility 6.2 miles    
Events      
Averages and records for this station are not official NWS values.
T = Trace of Precipitation, MM = Missing Value Source: Averaged Metar Reports

Daily Weather History Graph

Daily Weather History Graph

Search for Another Location

Airport:

Trip Planner

Search our weather history database for the weather conditions in past years. The results will help you decide how hot, cold, wet, or windy it might be!

Date:

Astronomy

Jun. 26, 2013 Rise Set
Actual Time 6:07 AM CEST 9:31 PM CEST
Civil Twilight 5:32 AM CEST 10:06 PM CEST
Nautical Twilight 4:45 AM CEST 10:53 PM CEST
Astronomical Twilight 3:47 AM CEST 11:51 PM CEST
Moon 11:37 PM CEST (6/26) 9:47 AM CEST (6/26)
Length of Visible Light 16h 34m
Length of Day
15h 23m
Waning Gibbous, 87% of the Moon is Illuminated
Jun 26
Waning Gibbous
Jun 30
Last Quarter
Jul 8
New
Jul 16
First Quarter
Jul 22
Full

Hourly Weather History & Observations

Time (CEST) Temp. Dew Point Humidity Pressure Visibility Wind Dir Wind Speed Gust Speed Precip Events Conditions
12:00 AM 64.4 °F 48.2 °F 56% 30.24 in 6.2 mi WNW 9.2 mph - N/A   Unknown
12:30 AM 64.4 °F 48.2 °F 56% 30.24 in 6.2 mi WNW 10.4 mph - N/A   Unknown
1:00 AM 62.6 °F 48.2 °F 59% 30.24 in 6.2 mi NNW 10.4 mph - N/A   Unknown
1:30 AM 62.6 °F 46.4 °F 55% 30.24 in 6.2 mi NNW 13.8 mph - N/A   Unknown
2:00 AM 62.6 °F 44.6 °F 52% 30.24 in 6.2 mi North 16.1 mph - N/A   Unknown
2:30 AM 62.6 °F 44.6 °F 52% 30.24 in 6.2 mi NNW 11.5 mph - N/A   Unknown
3:00 AM 60.8 °F 44.6 °F 55% 30.24 in 6.2 mi NW 10.4 mph - N/A   Unknown
3:30 AM 60.8 °F 42.8 °F 52% 30.24 in 6.2 mi NW 11.5 mph - N/A   Unknown
4:00 AM 60.8 °F 39.2 °F 45% 30.24 in 6.2 mi NNW 15.0 mph - N/A   Unknown
4:30 AM 60.8 °F 39.2 °F 45% 30.21 in 6.2 mi NNW 12.7 mph - N/A   Unknown
5:00 AM 60.8 °F 39.2 °F 45% 30.21 in 6.2 mi NW 11.5 mph - N/A   Unknown
5:30 AM 60.8 °F 39.2 °F 45% 30.24 in 6.2 mi NW 6.9 mph - N/A   Unknown
6:00 AM 59.0 °F 39.2 °F 48% 30.24 in 6.2 mi West 5.8 mph - N/A   Unknown
6:30 AM 57.2 °F 41.0 °F 55% 30.24 in 6.2 mi West 6.9 mph - N/A   Unknown
7:00 AM 60.8 °F 41.0 °F 48% 30.24 in 6.2 mi WNW 10.4 mph - N/A   Unknown
7:30 AM 62.6 °F 41.0 °F 45% 30.24 in 6.2 mi WNW 9.2 mph - N/A   Unknown
8:00 AM 62.6 °F 41.0 °F 45% 30.24 in 6.2 mi WNW 15.0 mph - N/A   Partly Cloudy
8:30 AM 64.4 °F 42.8 °F 45% 30.24 in 6.2 mi WNW 15.0 mph - N/A   Unknown
9:00 AM 66.2 °F 42.8 °F 43% 30.24 in 6.2 mi WNW 15.0 mph - N/A   Unknown
9:30 AM 66.2 °F 42.8 °F 43% 30.24 in 6.2 mi WNW 15.0 mph - N/A   Unknown
10:00 AM 68.0 °F 42.8 °F 40% 30.24 in 6.2 mi WNW 12.7 mph - N/A   Unknown
10:30 AM 69.8 °F 42.8 °F 38% 30.24 in 6.2 mi WNW 17.3 mph - N/A   Unknown
11:00 AM 69.8 °F 42.8 °F 38% 30.24 in 6.2 mi NW 17.3 mph - N/A   Unknown
11:30 AM 71.6 °F 42.8 °F 35% 30.24 in 6.2 mi NW 16.1 mph - N/A   Unknown
12:00 PM 73.4 °F 41.0 °F 31% 30.24 in 6.2 mi NW 16.1 mph - N/A   Unknown
12:30 PM 73.4 °F 42.8 °F 33% 30.24 in 6.2 mi NW 16.1 mph - N/A   Unknown
1:00 PM 75.2 °F 42.8 °F 31% 30.24 in 6.2 mi NW 15.0 mph - N/A   Unknown
1:30 PM 75.2 °F 44.6 °F 34% 30.21 in 6.2 mi WNW 15.0 mph - N/A   Unknown
2:00 PM 77.0 °F 42.8 °F 29% 30.21 in 6.2 mi WNW 15.0 mph - N/A   Unknown
2:30 PM 78.8 °F 44.6 °F 30% 30.21 in 6.2 mi NW 15.0 mph 26.5 mph N/A   Unknown
3:00 PM 77.0 °F 41.0 °F 28% 30.21 in 6.2 mi NNW 11.5 mph - N/A   Unknown
3:30 PM 80.6 °F 44.6 °F 28% 30.18 in 6.2 mi WNW 10.4 mph - N/A   Unknown
4:00 PM 78.8 °F 42.8 °F 28% 30.18 in 6.2 mi NNW 12.7 mph - N/A   Unknown
4:30 PM 80.6 °F 42.8 °F 26% 30.18 in 6.2 mi West 15.0 mph - N/A   Unknown
5:00 PM 80.6 °F 44.6 °F 28% 30.18 in 6.2 mi WNW 15.0 mph - N/A   Unknown
5:30 PM 80.6 °F 44.6 °F 28% 30.15 in 6.2 mi WNW 15.0 mph - N/A   Unknown
6:00 PM 80.6 °F 44.6 °F 28% 30.15 in 6.2 mi WNW 16.1 mph - N/A   Unknown
6:30 PM 80.6 °F 44.6 °F 28% 30.15 in 6.2 mi NW 17.3 mph - N/A   Unknown
7:00 PM 80.6 °F 46.4 °F 30% 30.15 in 6.2 mi NW 17.3 mph - N/A   Unknown
7:30 PM 78.8 °F 46.4 °F 32% 30.15 in 6.2 mi NW 17.3 mph - N/A   Unknown
8:00 PM 78.8 °F 46.4 °F 32% 30.15 in 6.2 mi WNW 18.4 mph - N/A   Unknown
8:30 PM 77.0 °F 44.6 °F 32% 30.15 in 6.2 mi WNW 18.4 mph - N/A   Unknown
9:00 PM 75.2 °F 46.4 °F 36% 30.18 in 6.2 mi WNW 13.8 mph - N/A   Unknown
9:30 PM 73.4 °F 44.6 °F 36% 30.18 in 6.2 mi WNW 11.5 mph - N/A   Unknown
10:00 PM 71.6 °F 44.6 °F 38% 30.18 in 6.2 mi WNW 10.4 mph - N/A   Unknown
10:30 PM 69.8 °F 44.6 °F 40% 30.21 in 6.2 mi WNW 8.1 mph - N/A   Unknown
11:00 PM 68.0 °F 44.6 °F 43% 30.21 in 6.2 mi West 4.6 mph - N/A   Unknown
11:30 PM 64.4 °F 44.6 °F 49% 30.21 in 6.2 mi West 4.6 mph - N/A   Unknown